When you browse on this site, cookies collect data to enhance your experience and personalize the content and advertising you see.
Visit our Privacy Policy to learn more. By continuing to use the site, you agree to this use of cookies and data.
  • In Denmark
  • List of Countries
  • For 7 days
  • Water Temperature
  • Satellite Maps
  • Weather Map
  • Weather Widgets
  • user-avatar
    Login

    Hourly Weather Yurkovo

    Today, 21 July, Sunday

    Time Temperature Precipitation Wind Pressure Humidity
    00:00 +14°C° 0 mm 2 mps 747 mmHg 84%
    01:00 +14°C° 0 mm 2 mps 747 mmHg 85%
    02:00 +13°C° 0 mm 2 mps 748 mmHg 85%
    03:00 +14°C° 0 mm 2 mps 748 mmHg 85%
    04:00 +14°C° 0 mm 2 mps 748 mmHg 85%
    05:00 +14°C° 0 mm 2 mps 748 mmHg 86%
    06:00 +16°C° 0 mm 2 mps 748 mmHg 82%
    07:00 +18°C° 0 mm 3 mps 748 mmHg 78%
    08:00 +20°C° 0 mm 3 mps 748 mmHg 73%
    09:00 +21°C° 0 mm 3 mps 748 mmHg 69%
    10:00 +22°C° 0 mm 3 mps 748 mmHg 64%
    11:00 +24°C° 0 mm 3 mps 748 mmHg 59%
    12:00 +25°C° 0.1 mm 3 mps 748 mmHg 59%
    13:00 +25°C° 0.1 mm 3 mps 748 mmHg 59%
    14:00 +25°C° 0.1 mm 4 mps 747 mmHg 58%
    15:00 +25°C° 0.4 mm 3 mps 747 mmHg 64%
    16:00 +24°C° 0.4 mm 3 mps 747 mmHg 70%
    17:00 +22°C° 0.4 mm 3 mps 747 mmHg 75%
    18:00 +21°C° 0.1 mm 3 mps 747 mmHg 80%
    19:00 +19°C° 0.1 mm 2 mps 747 mmHg 84%
    20:00 +18°C° 0.1 mm 2 mps 747 mmHg 89%
    21:00 +17°C° 0 mm 2 mps 747 mmHg 90%
    22:00 +16°C° 0 mm 2 mps 747 mmHg 91%
    23:00 +16°C° 0 mm 2 mps 748 mmHg 92%

    Tomorrow, 22 July, Monday

    Time Temperature Precipitation Wind Pressure Humidity
    00:00 +16°C° 0 mm 2 mps 748 mmHg 92%
    01:00 +15°C° 0 mm 1 mps 748 mmHg 92%
    02:00 +15°C° 0 mm 1 mps 748 mmHg 93%
    03:00 +15°C° 0 mm 1 mps 748 mmHg 92%
    04:00 +15°C° 0 mm 1 mps 748 mmHg 92%
    05:00 +16°C° 0 mm 1 mps 748 mmHg 92%
    06:00 +18°C° 0 mm 1 mps 748 mmHg 87%
    07:00 +20°C° 0 mm 1 mps 748 mmHg 82%
    08:00 +21°C° 0 mm 1 mps 748 mmHg 77%
    09:00 +23°C° 0 mm 1 mps 748 mmHg 73%
    10:00 +24°C° 0 mm 1 mps 747 mmHg 68%
    11:00 +25°C° 0 mm 2 mps 747 mmHg 63%
    12:00 +25°C° 0 mm 2 mps 747 mmHg 61%
    13:00 +26°C° 0 mm 2 mps 747 mmHg 59%
    14:00 +26°C° 0 mm 2 mps 746 mmHg 57%
    15:00 +26°C° 0 mm 2 mps 746 mmHg 60%
    16:00 +26°C° 0 mm 2 mps 746 mmHg 62%
    17:00 +26°C° 0 mm 2 mps 746 mmHg 65%
    18:00 +24°C° 0 mm 2 mps 745 mmHg 68%
    19:00 +23°C° 0 mm 2 mps 745 mmHg 70%
    20:00 +20°C° 0 mm 2 mps 745 mmHg 73%
    21:00 +19°C° 0.2 mm 2 mps 745 mmHg 76%
    22:00 +19°C° 0.2 mm 2 mps 744 mmHg 80%
    23:00 +18°C° 0.2 mm 2 mps 744 mmHg 83%

    Day after tomorrow, 23 July, Tuesday

    Time Temperature Precipitation Wind Pressure Humidity
    00:00 +18°C° 1.5 mm 2 mps 744 mmHg 87%
    01:00 +18°C° 1.5 mm 2 mps 743 mmHg 92%
    02:00 +17°C° 1.5 mm 2 mps 743 mmHg 97%
    03:00 +17°C° 2.6 mm 2 mps 743 mmHg 97%
    04:00 +17°C° 2.6 mm 2 mps 743 mmHg 97%
    05:00 +17°C° 2.6 mm 3 mps 742 mmHg 98%
    06:00 +18°C° 1 mm 3 mps 742 mmHg 96%
    07:00 +18°C° 1 mm 2 mps 742 mmHg 95%
    08:00 +19°C° 1 mm 2 mps 742 mmHg 94%
    09:00 +20°C° 0.9 mm 2 mps 742 mmHg 91%
    10:00 +21°C° 0.9 mm 2 mps 742 mmHg 89%
    11:00 +21°C° 0.9 mm 2 mps 742 mmHg 86%
    12:00 +23°C° 0.9 mm 2 mps 742 mmHg 84%
    13:00 +22°C° 0.9 mm 3 mps 742 mmHg 83%
    14:00 +24°C° 0.9 mm 3 mps 741 mmHg 81%
    15:00 +24°C° 0.4 mm 3 mps 742 mmHg 82%
    16:00 +22°C° 0.4 mm 3 mps 742 mmHg 83%
    17:00 +22°C° 0.4 mm 3 mps 742 mmHg 85%
    18:00 +21°C° 0.2 mm 3 mps 742 mmHg 88%
    19:00 +20°C° 0.2 mm 2 mps 742 mmHg 92%
    20:00 +19°C° 0.2 mm 2 mps 742 mmHg 95%
    21:00 +18°C° 0 mm 2 mps 742 mmHg 96%
    22:00 +18°C° 0 mm 2 mps 742 mmHg 97%
    23:00 +18°C° 0 mm 2 mps 743 mmHg 98%

    24 July, Wednesday

    Time Temperature Precipitation Wind Pressure Humidity
    00:00 +18°C° 0 mm 2 mps 743 mmHg 98%
    01:00 +18°C° 0 mm 2 mps 743 mmHg 97%
    02:00 +18°C° 0 mm 2 mps 743 mmHg 97%
    03:00 +17°C° 0 mm 2 mps 743 mmHg 97%
    04:00 +17°C° 0 mm 2 mps 743 mmHg 97%
    05:00 +17°C° 0 mm 3 mps 743 mmHg 97%
    06:00 +17°C° 0 mm 3 mps 743 mmHg 96%
    07:00 +17°C° 0 mm 3 mps 744 mmHg 95%
    08:00 +17°C° 0 mm 3 mps 744 mmHg 95%
    09:00 +18°C° 0.1 mm 3 mps 744 mmHg 93%
    10:00 +18°C° 0.1 mm 3 mps 744 mmHg 92%
    11:00 +19°C° 0.1 mm 4 mps 744 mmHg 90%
    12:00 +19°C° 0 mm 4 mps 744 mmHg 88%
    13:00 +20°C° 0 mm 3 mps 745 mmHg 86%
    14:00 +20°C° 0 mm 3 mps 745 mmHg 83%
    15:00 +21°C° 0 mm 3 mps 745 mmHg 82%
    16:00 +21°C° 0 mm 3 mps 745 mmHg 81%
    17:00 +21°C° 0 mm 3 mps 745 mmHg 80%
    18:00 +20°C° 0 mm 3 mps 745 mmHg 83%
    19:00 +18°C° 0 mm 2 mps 745 mmHg 86%
    20:00 +18°C° 0 mm 1 mps 745 mmHg 90%
    21:00 +16°C° 0 mm 1 mps 745 mmHg 90%
    22:00 +16°C° 0 mm 1 mps 746 mmHg 90%
    23:00 +15°C° 0 mm 1 mps 746 mmHg 90%

    25 July, Thursday

    Time Temperature Precipitation Wind Pressure Humidity
    00:00 +15°C° 0 mm 1 mps 746 mmHg 91%
    01:00 +15°C° 0 mm 1 mps 746 mmHg 92%
    02:00 +15°C° 0 mm 2 mps 746 mmHg 93%
    03:00 +15°C° 0 mm 2 mps 746 mmHg 93%
    04:00 +15°C° 0 mm 2 mps 746 mmHg 93%
    05:00 +15°C° 0 mm 2 mps 746 mmHg 93%
    06:00 +17°C° 0 mm 3 mps 746 mmHg 87%
    07:00 +19°C° 0 mm 3 mps 746 mmHg 81%
    08:00 +21°C° 0 mm 3 mps 746 mmHg 75%
    09:00 +22°C° 0 mm 3 mps 746 mmHg 70%
    10:00 +24°C° 0 mm 3 mps 746 mmHg 66%
    11:00 +25°C° 0 mm 4 mps 746 mmHg 61%
    12:00 +26°C° 0 mm 3 mps 746 mmHg 59%
    13:00 +26°C° 0 mm 3 mps 746 mmHg 58%
    14:00 +26°C° 0 mm 3 mps 745 mmHg 56%
    15:00 +26°C° 0 mm 2 mps 745 mmHg 60%
    16:00 +26°C° 0 mm 2 mps 745 mmHg 64%
    17:00 +26°C° 0 mm 2 mps 745 mmHg 68%
    18:00 +24°C° 0.1 mm 2 mps 745 mmHg 74%
    19:00 +21°C° 0.1 mm 2 mps 745 mmHg 79%
    20:00 +19°C° 0.1 mm 2 mps 745 mmHg 85%
    21:00 +19°C° 0 mm 2 mps 745 mmHg 88%
    22:00 +18°C° 0 mm 2 mps 744 mmHg 90%
    23:00 +17°C° 0 mm 2 mps 744 mmHg 93%

    26 July, Friday

    Time Temperature Precipitation Wind Pressure Humidity
    00:00 +17°C° 0 mm 2 mps 744 mmHg 93%
    01:00 +16°C° 0 mm 3 mps 744 mmHg 93%
    02:00 +16°C° 0 mm 3 mps 744 mmHg 94%
    03:00 +14°C° 0 mm 3 mps 744 mmHg 93%
    04:00 +14°C° 0 mm 3 mps 744 mmHg 93%
    05:00 +14°C° 0 mm 3 mps 743 mmHg 92%
    06:00 +16°C° 0 mm 3 mps 743 mmHg 88%
    07:00 +17°C° 0 mm 3 mps 743 mmHg 84%
    08:00 +19°C° 0 mm 4 mps 743 mmHg 80%
    09:00 +20°C° 0 mm 4 mps 743 mmHg 73%
    10:00 +21°C° 0 mm 4 mps 743 mmHg 67%
    11:00 +22°C° 0 mm 4 mps 742 mmHg 60%
    12:00 +22°C° 0 mm 4 mps 742 mmHg 60%
    13:00 +23°C° 0 mm 4 mps 742 mmHg 60%
    14:00 +23°C° 0 mm 4 mps 741 mmHg 59%
    15:00 +22°C° 0.2 mm 5 mps 741 mmHg 64%
    16:00 +21°C° 0.2 mm 5 mps 741 mmHg 69%
    17:00 +20°C° 0.2 mm 5 mps 740 mmHg 74%
    18:00 +19°C° 0.1 mm 4 mps 740 mmHg 79%
    19:00 +17°C° 0.1 mm 4 mps 740 mmHg 85%
    20:00 +14°C° 0.1 mm 3 mps 740 mmHg 91%
    21:00 +13°C° 0 mm 3 mps 740 mmHg 92%
    22:00 +13°C° 0 mm 3 mps 739 mmHg 93%
    23:00 +12°C° 0 mm 3 mps 739 mmHg 94%
    Show more